Find Starlink 30507

NORAD ID: 57982 Int'l Des: 2023-151 Owner: SPXS Country: US Constellation: starlink operational
LEOCIRCULAR

Current View

Loading 3D Globe...

About Starlink 30507

Starlink 30507 (NORAD 57982) is a starlink constellation satellite (v2 mini) launched Sep 30, 2023 by SPXS of US. It operates in LEO, CIRCULAR orbit with a mass of 730.00 kg.

About Starlink 30507

Description loading...

Upcoming Passes

Passes for default location (London). Set your location on the main map for personalized predictions.

Altitude History

Loading altitude history...

Two-Line Element Set

1 57982U 23151U 26167.67709800 -.00001571 00000-0 -47566-4 0 9990
2 57982 43.0020 154.9383 0001291 262.6733 97.3972 15.27574947150685
Epoch: Jun 16, 2026 • Age: 31 hours

Current Status

Altitude 489.2 km
Velocity 7.62 km/s
Sub-Earth Point -26.54°S, 142.69°W
Launch Date Sep 30, 2023
Age 2.7 years
Type internet

Technical Details

Classification Payload
Mass 730.00 kg
Dry Mass 700.00 kg
Total Mass 730.00 kg
Length 0.30 m
Diameter 4.10 m
Span 29.00 m
Shape Box + pan
Manufacturer SPXS
Bus Type Starlink V2M
Phase Status In Orbit
Owner/State SPXS/US

Most Searched